EW9479 Weather Reports


Display with metric or nautical units.
time (UTC)temp
F
wind
direction
speed
MPH
gust
MPH
rain 1hr
in
rain 24hr
in
rain mn
in
humidity
%
barometer
mb
20260904111547 72 0 0.0 0.0 0.00 0.00 0.00 92 1016.6
20260904110051 72 0 0.0 0.0 0.00 0.00 0.00 91 1016.5
20260904104546 73 0 0.0 0.0 0.00 0.00 0.00 91 1016.5
20260904103044 73 0 0.0 0.0 0.00 0.00 0.00 91 1016.4
20260904101545 73 0 0.0 0.0 0.00 0.00 0.00 91 1016.4
20260904100047 73 0 0.0 0.0 0.00 0.00 0.00 91 1016.4
20260904094555 74 0 0.0 0.0 0.00 0.00 0.00 91 1016.3
20260904093046 73 0 0.0 0.0 0.00 0.00 0.00 90 1016.2
20260904091549 73 0 0.0 0.0 0.00 0.00 0.00 90 1016.1
20260904090055 74 0 0.0 0.0 0.00 0.00 0.00 90 1016.0
20260904084549 74 0 0.0 0.0 0.00 0.00 0.00 90 1016.0
20260904083126 74 0 0.0 0.0 0.00 0.00 0.00 89 1015.9
20260904081546 74 0 0.0 0.0 0.00 0.00 0.00 89 1016.0
20260904080045 74 0 0.0 0.0 0.00 0.00 0.00 89 1015.9
20260904074543 74 0 0.0 0.0 0.00 0.00 0.00 89 1015.8
20260904073052 75 0 0.0 0.0 0.00 0.00 0.00 88 1015.9
20260904071602 75 0 0.0 0.0 0.00 0.00 0.00 87 1016.0
20260904070113 75 0 0.0 0.0 0.00 0.00 0.00 87 1016.0
20260904064548 76 0 0.0 0.0 0.00 0.00 0.00 86 1016.0
20260904063059 76 0 0.0 0.0 0.00 0.00 0.00 85 1016.1
20260904061546 76 0 0.0 0.0 0.00 0.00 0.00 85 1016.1
20260904060054 77 0 0.0 0.0 0.00 0.00 0.00 85 1015.9
20260904054549 77 0 0.0 0.0 0.00 0.00 0.00 85 1016.0
20260904053100 77 0 0.0 0.0 0.00 0.00 0.00 83 1015.9
20260904051546 78 0 0.0 0.0 0.00 0.00 0.00 83 1016.0
20260904050043 78 0 0.0 0.0 0.00 0.00 0.00 82 1016.0
20260904044546 79 0 0.0 0.0 0.00 0.00 0.00 82 1016.2
20260904043056 79 0 0.0 0.0 0.00 0.00 0.00 82 1016.3
20260904041548 79 0 0.0 0.0 0.00 0.00 0.00 80 1016.3
20260904034551 80 0 0.0 0.0 0.00 0.00 0.00 79 1016.5
20260904033049 81 0 0.0 0.0 0.00 0.00 0.00 77 1016.5
20260904031555 81 0 0.0 1.0 0.00 0.00 0.00 77 1016.5
20260904030046 82 0 0.0 0.0 0.00 0.00 0.00 77 1016.6
20260904024544 82 0 0.0 0.0 0.00 0.00 0.00 77 1016.6
20260904023048 82 0 0.0 0.0 0.00 0.00 0.00 75 1016.3
20260904021545 82 0 0.0 2.0 0.00 0.00 0.00 75 1016.3
20260904020047 83 0 0.0 0.0 0.00 0.00 0.00 73 1015.9
20260904014557 85 0 0.0 0.0 0.00 0.00 0.00 71 1015.7
20260904013046 86 0 0.0 0.0 0.00 0.00 0.00 69 1015.5
20260904011547 87 0 0.0 0.0 0.00 0.00 0.00 67 1015.3
20260904010051 87 0 0.0 0.0 0.00 0.00 0.00 66 1015.1
20260904004547 88 0 0.0 1.0 0.00 0.00 0.00 65 1015.1
20260904003045 89 0 0.0 1.0 0.00 0.00 0.00 63 1015.0
20260904001547 91 0 0.0 1.0 0.00 0.00 0.00 60 1014.9
20260904000104 94 0 0.0 1.0 0.00 0.00 0.00 55 1014.8
20260903234546 96 0 0.0 1.0 0.00 0.00 0.00 53 1014.9
20260903233046 96 0 0.0 1.0 0.00 0.00 0.00 52 1014.9
20260903231546 97 0 0.0 4.0 0.00 0.00 0.00 49 1014.7
20260903230048 98 203 1.0 3.0 0.00 0.00 0.00 48 1014.6
20260903224548 98 209 0.0 1.0 0.00 0.00 0.00 47 1014.4
20260903223045 99 0 1.0 3.0 0.00 0.00 0.00 47 1014.5
20260903221545 99 191 0.0 3.0 0.00 0.00 0.00 47 1014.4
20260903220045 98 0 0.0 4.0 0.00 0.00 0.00 48 1014.4
20260903214605 98 70 0.0 2.0 0.00 0.00 0.00 48 1014.4
20260903213048 98 89 1.0 5.0 0.00 0.00 0.00 47 1014.5
20260903211546 100 326 3.0 7.0 0.00 0.00 0.00 44 1014.6
20260903210046 99 197 2.0 7.0 0.00 0.00 0.00 45 1014.8
20260903204547 100 262 4.0 9.0 0.00 0.00 0.00 45 1015.0
20260903203047 100 257 3.0 9.0 0.00 0.00 0.00 44 1015.0
20260903201552 98 249 3.0 5.0 0.00 0.00 0.00 45 1015.4
20260903200051 99 203 5.0 9.0 0.00 0.00 0.00 47 1015.7
20260903194552 98 196 2.0 6.0 0.00 0.00 0.00 48 1015.8
20260903193046 96 0 0.0 1.0 0.00 0.00 0.00 53 1016.3
20260903191545 96 69 0.0 2.0 0.00 0.00 0.00 54 1016.4
20260903190052 96 25 1.0 4.0 0.00 0.00 0.00 52 1016.5
20260903184546 95 314 1.0 5.0 0.00 0.00 0.00 53 1016.6
20260903183046 96 300 1.0 3.0 0.00 0.00 0.00 53 1017.0
20260903181544 95 231 1.0 3.0 0.00 0.00 0.00 55 1017.0
20260903180051 96 220 1.0 3.0 0.00 0.00 0.00 53 1017.1
20260903174548 95 34 1.0 5.0 0.00 0.00 0.00 56 1017.2
20260903173046 95 208 3.0 6.0 0.00 0.00 0.00 56 1017.5
20260903171543 94 0 0.0 4.0 0.00 0.00 0.00 57 1017.7
20260903170053 94 199 2.0 4.0 0.00 0.00 0.00 55 1017.8
20260903164550 94 186 3.0 10.0 0.00 0.00 0.00 57 1017.9
20260903163047 95 17 2.0 6.0 0.00 0.00 0.00 58 1018.1
20260903161546 95 24 1.0 4.0 0.00 0.00 0.00 59 1018.2
20260903160052 94 23 2.0 5.0 0.00 0.00 0.00 60 1018.2
20260903154550 93 24 2.0 6.0 0.00 0.00 0.00 61 1018.3
20260903153101 93 53 1.0 4.0 0.00 0.00 0.00 61 1018.3
20260903151544 92 321 1.0 4.0 0.00 0.00 0.00 63 1018.3
20260903150104 91 309 2.0 5.0 0.00 0.00 0.00 63 1018.3
20260903144546 91 291 2.0 4.0 0.00 0.00 0.00 62 1018.4
20260903143056 91 0 0.0 2.0 0.00 0.00 0.00 66 1018.4
20260903141555 91 110 0.0 1.0 0.00 0.00 0.00 65 1018.4
20260903140052 89 128 0.0 1.0 0.00 0.00 0.00 68 1018.3
20260903134549 88 0 0.0 1.0 0.00 0.00 0.00 71 1018.5
20260903133045 86 0 0.0 0.0 0.00 0.00 0.00 76 1018.5
20260903131553 81 0 0.0 1.0 0.00 0.00 0.00 82 1018.5
20260903130044 77 0 0.0 0.0 0.00 0.00 0.00 87 1018.5
20260903124549 75 0 0.0 1.0 0.00 0.00 0.00 89 1018.6
20260903123043 74 0 0.0 1.0 0.00 0.00 0.00 90 1018.6
20260903121543 73 0 0.0 1.0 0.00 0.00 0.00 91 1018.4
20260903120051 72 0 0.0 0.0 0.00 0.00 0.00 91 1018.1
20260903114545 72 0 0.0 0.0 0.00 0.00 0.00 91 1018.1
20260903113045 72 0 0.0 0.0 0.00 0.00 0.00 91 1017.8